contact:dominique.lefevre@mio.osupytheas.fr, maurice.libes@osupytheas.fr, didier.mallarino@osupytheas.fr
Project:EMSO http://www.emso-fr.org/EMSO-France
Depth: 2436.0 m
Title:EMSO Ligure Ouest : Data MII capteur MICROCAT
DateTime_Computer,Latitude,Longitude,Temperature,Conductivity,Pressure,DateTime_Instrument
DateTime_Computer,Latitude,Longitude,degC,S m-1,dbar,DateTime_Instrument
2017-10-21T00:00:10Z,42.805,6.029,13.2935,4.59966,2471.934,2017-10-21T02:01:35Z
2017-10-21T00:01:45Z,42.805,6.029,13.2935,4.59968,2471.979,2017-10-21T02:03:10Z
2017-10-21T00:03:19Z,42.805,6.029,13.2938,4.59975,2471.957,2017-10-21T02:04:45Z
2017-10-21T00:04:54Z,42.805,6.029,13.2939,4.59968,2471.957,2017-10-21T02:06:19Z
2017-10-21T00:06:29Z,42.805,6.029,13.2935,4.59972,2471.934,2017-10-21T02:07:54Z
2017-10-21T00:08:04Z,42.805,6.029,13.2933,4.59968,2471.919,2017-10-21T02:09:29Z
2017-10-21T00:09:39Z,42.805,6.029,13.2936,4.59966,2471.979,2017-10-21T02:11:04Z
2017-10-21T00:11:14Z,42.805,6.029,13.2943,4.59970,2471.964,2017-10-21T02:12:39Z
2017-10-21T00:12:48Z,42.805,6.029,13.2936,4.59971,2471.964,2017-10-21T02:14:14Z
2017-10-21T00:14:23Z,42.805,6.029,13.2938,4.59968,2471.942,2017-10-21T02:15:48Z
2017-10-21T00:15:58Z,42.805,6.029,13.2937,4.59967,2471.919,2017-10-21T02:17:23Z
2017-10-21T00:17:33Z,42.805,6.029,13.2939,4.59967,2471.942,2017-10-21T02:18:58Z
2017-10-21T00:19:08Z,42.805,6.029,13.2939,4.59967,2471.934,2017-10-21T02:20:33Z
2017-10-21T00:20:43Z,42.805,6.029,13.2935,4.59967,2471.957,2017-10-21T02:22:08Z
2017-10-21T00:22:17Z,42.805,6.029,13.2936,4.59967,2471.934,2017-10-21T02:23:43Z
2017-10-21T00:23:52Z,42.805,6.029,13.2934,4.59967,2471.957,2017-10-21T02:25:17Z
2017-10-21T00:25:27Z,42.805,6.029,13.2937,4.59966,2471.934,2017-10-21T02:26:52Z
2017-10-21T00:27:02Z,42.805,6.029,13.2935,4.59965,2471.912,2017-10-21T02:28:27Z
2017-10-21T00:28:37Z,42.805,6.029,13.2935,4.59968,2471.934,2017-10-21T02:30:02Z
2017-10-21T00:30:12Z,42.805,6.029,13.2939,4.59966,2471.919,2017-10-21T02:31:37Z
2017-10-21T00:31:46Z,42.805,6.029,13.2935,4.59967,2471.897,2017-10-21T02:33:12Z
2017-10-21T00:33:21Z,42.805,6.029,13.2937,4.59968,2471.919,2017-10-21T02:34:46Z
2017-10-21T00:34:56Z,42.805,6.029,13.2939,4.59970,2471.934,2017-10-21T02:36:21Z
2017-10-21T00:36:31Z,42.805,6.029,13.2939,4.59966,2471.934,2017-10-21T02:37:56Z
2017-10-21T00:38:06Z,42.805,6.029,13.2940,4.59968,2471.934,2017-10-21T02:39:31Z
2017-10-21T00:39:41Z,42.805,6.029,13.2939,4.59970,2471.934,2017-10-21T02:41:06Z
2017-10-21T00:41:15Z,42.805,6.029,13.2940,4.59967,2471.919,2017-10-21T02:42:41Z
2017-10-21T00:42:50Z,42.805,6.029,13.2938,4.59970,2471.942,2017-10-21T02:44:15Z
2017-10-21T00:44:25Z,42.805,6.029,13.2937,4.59969,2471.919,2017-10-21T02:45:50Z
2017-10-21T00:46:00Z,42.805,6.029,13.2939,4.59971,2471.919,2017-10-21T02:47:25Z
2017-10-21T00:47:35Z,42.805,6.029,13.2935,4.59969,2471.971,2017-10-21T02:49:00Z
2017-10-21T00:49:10Z,42.805,6.029,13.2939,4.59967,2471.919,2017-10-21T02:50:35Z
2017-10-21T00:50:45Z,42.805,6.029,13.2940,4.59967,2471.919,2017-10-21T02:52:10Z
2017-10-21T00:52:19Z,42.805,6.029,13.2937,4.59970,2471.934,2017-10-21T02:53:44Z
2017-10-21T00:53:54Z,42.805,6.029,13.2939,4.59970,2471.934,2017-10-21T02:55:19Z
2017-10-21T00:55:29Z,42.805,6.029,13.2936,4.59968,2471.897,2017-10-21T02:56:54Z
2017-10-21T00:57:04Z,42.805,6.029,13.2942,4.59967,2471.919,2017-10-21T02:58:29Z
2017-10-21T00:58:39Z,42.805,6.029,13.2942,4.59968,2471.919,2017-10-21T03:00:04Z
2017-10-21T01:00:14Z,42.805,6.029,13.2939,4.59967,2471.874,2017-10-21T03:01:39Z
2017-10-21T01:01:48Z,42.805,6.029,13.2935,4.59965,2471.934,2017-10-21T03:03:13Z
2017-10-21T01:03:23Z,42.805,6.029,13.2937,4.59968,2471.934,2017-10-21T03:04:48Z
2017-10-21T01:04:58Z,42.805,6.029,13.2939,4.59968,2471.912,2017-10-21T03:06:23Z
2017-10-21T01:06:33Z,42.805,6.029,13.2935,4.59967,2471.957,2017-10-21T03:07:58Z
2017-10-21T01:08:08Z,42.805,6.029,13.2935,4.59965,2471.934,2017-10-21T03:09:33Z
2017-10-21T01:09:43Z,42.805,6.029,13.2937,4.59967,2471.934,2017-10-21T03:11:08Z
2017-10-21T01:11:17Z,42.805,6.029,13.2936,4.59967,2471.919,2017-10-21T03:12:42Z
2017-10-21T01:12:52Z,42.805,6.029,13.2935,4.59964,2471.934,2017-10-21T03:14:17Z
2017-10-21T01:14:27Z,42.805,6.029,13.2940,4.59967,2471.912,2017-10-21T03:15:52Z
2017-10-21T01:16:02Z,42.805,6.029,13.2939,4.59967,2471.897,2017-10-21T03:17:27Z
2017-10-21T01:17:37Z,42.805,6.029,13.2933,4.59969,2471.919,2017-10-21T03:19:02Z
2017-10-21T01:19:12Z,42.805,6.029,13.2939,4.59968,2471.934,2017-10-21T03:20:37Z
2017-10-21T01:20:46Z,42.805,6.029,13.2937,4.59965,2471.912,2017-10-21T03:22:11Z
2017-10-21T01:22:21Z,42.805,6.029,13.2939,4.59967,2471.934,2017-10-21T03:23:46Z
2017-10-21T01:23:56Z,42.805,6.029,13.2939,4.59969,2471.912,2017-10-21T03:25:21Z
2017-10-21T01:25:31Z,42.805,6.029,13.2940,4.59970,2471.912,2017-10-21T03:26:56Z
2017-10-21T01:27:06Z,42.805,6.029,13.2935,4.59967,2471.934,2017-10-21T03:28:31Z
2017-10-21T01:28:41Z,42.805,6.029,13.2933,4.59968,2471.934,2017-10-21T03:30:06Z
2017-10-21T01:30:15Z,42.805,6.029,13.2938,4.59969,2471.927,2017-10-21T03:31:41Z
2017-10-21T01:31:50Z,42.805,6.029,13.2940,4.59968,2471.919,2017-10-21T03:33:15Z
2017-10-21T01:33:25Z,42.805,6.029,13.2936,4.59969,2471.919,2017-10-21T03:34:50Z
2017-10-21T01:35:00Z,42.805,6.029,13.2938,4.59970,2471.874,2017-10-21T03:36:25Z
2017-10-21T01:36:35Z,42.805,6.029,13.2939,4.59971,2471.934,2017-10-21T03:38:00Z
2017-10-21T01:38:10Z,42.805,6.029,13.2936,4.59968,2471.912,2017-10-21T03:39:35Z
2017-10-21T01:39:44Z,42.805,6.029,13.2936,4.59970,2471.897,2017-10-21T03:41:10Z
2017-10-21T01:41:19Z,42.805,6.029,13.2937,4.59969,2471.912,2017-10-21T03:42:44Z
2017-10-21T01:42:54Z,42.805,6.029,13.2939,4.59970,2471.874,2017-10-21T03:44:19Z
2017-10-21T01:44:29Z,42.805,6.029,13.2939,4.59968,2471.912,2017-10-21T03:45:54Z
2017-10-21T01:46:04Z,42.805,6.029,13.2938,4.59967,2471.912,2017-10-21T03:47:29Z
2017-10-21T01:47:39Z,42.805,6.029,13.2939,4.59969,2471.942,2017-10-21T03:49:04Z
2017-10-21T01:49:13Z,42.805,6.029,13.2939,4.59970,2471.889,2017-10-21T03:50:39Z
2017-10-21T01:50:48Z,42.805,6.029,13.2941,4.59970,2471.912,2017-10-21T03:52:13Z
2017-10-21T01:52:23Z,42.805,6.029,13.2938,4.59973,2471.919,2017-10-21T03:53:48Z
2017-10-21T01:53:58Z,42.805,6.029,13.2939,4.59970,2471.912,2017-10-21T03:55:23Z
2017-10-21T01:55:33Z,42.805,6.029,13.2937,4.59972,2471.934,2017-10-21T03:56:58Z
2017-10-21T01:57:08Z,42.805,6.029,13.2937,4.59971,2471.897,2017-10-21T03:58:33Z
2017-10-21T01:58:42Z,42.805,6.029,13.2935,4.59972,2471.897,2017-10-21T04:00:08Z
2017-10-21T02:00:17Z,42.805,6.029,13.2940,4.59971,2471.912,2017-10-21T04:01:42Z
2017-10-21T02:01:52Z,42.805,6.029,13.2939,4.59970,2471.912,2017-10-21T04:03:17Z
2017-10-21T02:03:27Z,42.805,6.029,13.2939,4.59971,2471.874,2017-10-21T04:04:52Z
2017-10-21T02:05:02Z,42.805,6.029,13.2937,4.59970,2471.889,2017-10-21T04:06:27Z
2017-10-21T02:06:37Z,42.805,6.029,13.2933,4.59968,2471.897,2017-10-21T04:08:02Z
2017-10-21T02:08:11Z,42.805,6.029,13.2940,4.59970,2471.874,2017-10-21T04:09:37Z
2017-10-21T02:09:46Z,42.805,6.029,13.2941,4.59969,2471.912,2017-10-21T04:11:11Z
2017-10-21T02:11:21Z,42.805,6.029,13.2940,4.59973,2471.912,2017-10-21T04:12:46Z
2017-10-21T02:12:56Z,42.805,6.029,13.2940,4.59969,2471.912,2017-10-21T04:14:21Z
2017-10-21T02:14:31Z,42.805,6.029,13.2936,4.59970,2471.912,2017-10-21T04:15:56Z
2017-10-21T02:16:06Z,42.805,6.029,13.2939,4.59970,2471.919,2017-10-21T04:17:31Z
2017-10-21T02:17:40Z,42.805,6.029,13.2939,4.59970,2471.934,2017-10-21T04:19:06Z
2017-10-21T02:19:15Z,42.805,6.029,13.2938,4.59967,2471.934,2017-10-21T04:20:40Z
2017-10-21T02:20:50Z,42.805,6.029,13.2935,4.59967,2471.919,2017-10-21T04:22:15Z
2017-10-21T02:22:25Z,42.805,6.029,13.2936,4.59967,2471.912,2017-10-21T04:23:50Z
2017-10-21T02:24:00Z,42.805,6.029,13.2940,4.59967,2471.912,2017-10-21T04:25:25Z
2017-10-21T02:25:35Z,42.805,6.029,13.2937,4.59964,2471.912,2017-10-21T04:27:00Z
2017-10-21T02:27:09Z,42.805,6.029,13.2939,4.59964,2471.912,2017-10-21T04:28:35Z
2017-10-21T02:28:44Z,42.805,6.029,13.2933,4.59967,2471.912,2017-10-21T04:30:09Z
2017-10-21T02:30:19Z,42.805,6.029,13.2939,4.59972,2471.897,2017-10-21T04:31:44Z
2017-10-21T02:31:54Z,42.805,6.029,13.2935,4.59965,2471.897,2017-10-21T04:33:19Z
2017-10-21T02:33:29Z,42.805,6.029,13.2937,4.59964,2471.889,2017-10-21T04:34:54Z
2017-10-21T02:35:04Z,42.805,6.029,13.2939,4.59968,2471.934,2017-10-21T04:36:29Z
2017-10-21T02:36:38Z,42.805,6.029,13.2938,4.59967,2471.912,2017-10-21T04:38:04Z
2017-10-21T02:38:13Z,42.805,6.029,13.2935,4.59964,2471.912,2017-10-21T04:39:38Z
2017-10-21T02:39:48Z,42.805,6.029,13.2940,4.59964,2471.912,2017-10-21T04:41:13Z
2017-10-21T02:41:23Z,42.805,6.029,13.2940,4.59964,2471.889,2017-10-21T04:42:48Z
2017-10-21T02:42:58Z,42.805,6.029,13.2937,4.59963,2471.934,2017-10-21T04:44:23Z
2017-10-21T02:44:33Z,42.805,6.029,13.2939,4.59965,2471.934,2017-10-21T04:45:58Z
2017-10-21T02:46:08Z,42.805,6.029,13.2936,4.59963,2471.897,2017-10-21T04:47:33Z
2017-10-21T02:47:42Z,42.805,6.029,13.2937,4.59961,2471.934,2017-10-21T04:49:08Z
2017-10-21T02:49:17Z,42.805,6.029,13.2936,4.59962,2471.934,2017-10-21T04:50:42Z
2017-10-21T02:50:52Z,42.805,6.029,13.2934,4.59967,2471.912,2017-10-21T04:52:17Z
2017-10-21T02:52:27Z,42.805,6.029,13.2937,4.59964,2471.934,2017-10-21T04:53:52Z
2017-10-21T02:54:02Z,42.805,6.029,13.2938,4.59967,2471.919,2017-10-21T04:55:27Z
2017-10-21T02:55:37Z,42.805,6.029,13.2939,4.59964,2471.919,2017-10-21T04:57:02Z
2017-10-21T02:57:11Z,42.805,6.029,13.2935,4.59964,2471.897,2017-10-21T04:58:37Z
2017-10-21T02:58:46Z,42.805,6.029,13.2935,4.59967,2471.889,2017-10-21T05:00:11Z
2017-10-21T03:00:21Z,42.805,6.029,13.2937,4.59963,2471.919,2017-10-21T05:01:46Z
2017-10-21T03:01:56Z,42.805,6.029,13.2936,4.59963,2471.919,2017-10-21T05:03:21Z
2017-10-21T03:03:31Z,42.805,6.029,13.2937,4.59964,2471.934,2017-10-21T05:04:56Z
2017-10-21T03:05:06Z,42.805,6.029,13.2939,4.59963,2471.889,2017-10-21T05:06:31Z
2017-10-21T03:06:40Z,42.805,6.029,13.2935,4.59962,2471.919,2017-10-21T05:08:06Z
2017-10-21T03:08:15Z,42.805,6.029,13.2932,4.59965,2471.874,2017-10-21T05:09:40Z
2017-10-21T03:09:50Z,42.805,6.029,13.2935,4.59967,2471.919,2017-10-21T05:11:15Z
2017-10-21T03:11:25Z,42.805,6.029,13.2935,4.59967,2471.912,2017-10-21T05:12:50Z
2017-10-21T03:13:00Z,42.805,6.029,13.2938,4.59965,2471.889,2017-10-21T05:14:25Z
2017-10-21T03:14:35Z,42.805,6.029,13.2937,4.59962,2471.912,2017-10-21T05:16:00Z
2017-10-21T03:16:09Z,42.805,6.029,13.2937,4.59962,2471.912,2017-10-21T05:17:35Z
2017-10-21T03:17:44Z,42.805,6.029,13.2934,4.59964,2471.912,2017-10-21T05:19:09Z
2017-10-21T03:19:19Z,42.805,6.029,13.2939,4.59964,2471.912,2017-10-21T05:20:44Z
2017-10-21T03:20:54Z,42.805,6.029,13.2937,4.59965,2471.919,2017-10-21T05:22:19Z
2017-10-21T03:22:29Z,42.805,6.029,13.2940,4.59964,2471.874,2017-10-21T05:23:54Z
2017-10-21T03:24:04Z,42.805,6.029,13.2940,4.59967,2471.852,2017-10-21T05:25:29Z
2017-10-21T03:25:38Z,42.805,6.029,13.2935,4.59964,2471.897,2017-10-21T05:27:04Z
2017-10-21T03:27:13Z,42.805,6.029,13.2940,4.59962,2471.934,2017-10-21T05:28:38Z
2017-10-21T03:28:48Z,42.805,6.029,13.2936,4.59964,2471.919,2017-10-21T05:30:13Z
2017-10-21T03:30:23Z,42.805,6.029,13.2940,4.59964,2471.934,2017-10-21T05:31:48Z
2017-10-21T03:31:58Z,42.805,6.029,13.2938,4.59962,2471.934,2017-10-21T05:33:23Z
2017-10-21T03:33:33Z,42.805,6.029,13.2935,4.59964,2471.919,2017-10-21T05:34:58Z
2017-10-21T03:35:07Z,42.805,6.029,13.2939,4.59963,2471.934,2017-10-21T05:36:33Z
2017-10-21T03:36:42Z,42.805,6.029,13.2937,4.59963,2471.934,2017-10-21T05:38:07Z
2017-10-21T03:38:17Z,42.805,6.029,13.2939,4.59965,2471.897,2017-10-21T05:39:42Z
2017-10-21T03:39:52Z,42.805,6.029,13.2936,4.59965,2471.919,2017-10-21T05:41:17Z
2017-10-21T03:41:27Z,42.805,6.029,13.2940,4.59962,2471.934,2017-10-21T05:42:52Z
2017-10-21T03:43:02Z,42.805,6.029,13.2942,4.59967,2471.934,2017-10-21T05:44:27Z
2017-10-21T03:44:36Z,42.805,6.029,13.2940,4.59963,2471.919,2017-10-21T05:46:02Z
2017-10-21T03:46:11Z,42.805,6.029,13.2936,4.59964,2471.957,2017-10-21T05:47:36Z
2017-10-21T03:47:46Z,42.805,6.029,13.2940,4.59964,2471.919,2017-10-21T05:49:11Z
2017-10-21T03:49:21Z,42.805,6.029,13.2941,4.59964,2471.919,2017-10-21T05:50:46Z
2017-10-21T03:50:56Z,42.805,6.029,13.2939,4.59965,2471.897,2017-10-21T05:52:21Z
2017-10-21T03:52:31Z,42.805,6.029,13.2935,4.59968,2471.919,2017-10-21T05:53:56Z
2017-10-21T03:54:05Z,42.805,6.029,13.2936,4.59965,2471.934,2017-10-21T05:55:31Z
2017-10-21T03:55:40Z,42.805,6.029,13.2939,4.59962,2471.957,2017-10-21T05:57:05Z
2017-10-21T03:57:15Z,42.805,6.029,13.2939,4.59963,2471.934,2017-10-21T05:58:40Z
2017-10-21T03:58:50Z,42.805,6.029,13.2940,4.59962,2471.957,2017-10-21T06:00:15Z
2017-10-21T04:00:25Z,42.805,6.029,13.2940,4.59961,2471.942,2017-10-21T06:01:50Z
2017-10-21T04:02:00Z,42.805,6.029,13.2938,4.59964,2471.919,2017-10-21T06:03:25Z
2017-10-21T04:03:34Z,42.805,6.029,13.2938,4.59963,2471.912,2017-10-21T06:05:00Z
2017-10-21T04:05:09Z,42.805,6.029,13.2934,4.59961,2471.957,2017-10-21T06:06:34Z
2017-10-21T04:06:44Z,42.805,6.029,13.2936,4.59962,2471.934,2017-10-21T06:08:09Z
2017-10-21T04:08:19Z,42.805,6.029,13.2935,4.59965,2471.934,2017-10-21T06:09:44Z
2017-10-21T04:09:54Z,42.805,6.029,13.2935,4.59962,2471.942,2017-10-21T06:11:19Z
2017-10-21T04:11:29Z,42.805,6.029,13.2937,4.59963,2471.919,2017-10-21T06:12:54Z
2017-10-21T04:13:03Z,42.805,6.029,13.2935,4.59964,2471.957,2017-10-21T06:14:29Z
2017-10-21T04:14:38Z,42.805,6.029,13.2935,4.59963,2471.942,2017-10-21T06:16:03Z
2017-10-21T04:16:13Z,42.805,6.029,13.2937,4.59961,2471.919,2017-10-21T06:17:38Z
2017-10-21T04:17:48Z,42.805,6.029,13.2938,4.59962,2471.957,2017-10-21T06:19:13Z
2017-10-21T04:19:23Z,42.805,6.029,13.2938,4.59961,2471.957,2017-10-21T06:20:48Z
2017-10-21T04:20:58Z,42.805,6.029,13.2943,4.59963,2471.964,2017-10-21T06:22:23Z
2017-10-21T04:22:32Z,42.805,6.029,13.2935,4.59967,2471.964,2017-10-21T06:23:58Z
2017-10-21T04:24:07Z,42.805,6.029,13.2935,4.59965,2471.942,2017-10-21T06:25:32Z
2017-10-21T04:25:42Z,42.805,6.029,13.2937,4.59970,2471.979,2017-10-21T06:27:07Z
2017-10-21T04:27:17Z,42.805,6.029,13.2941,4.59964,2471.919,2017-10-21T06:28:42Z
2017-10-21T04:28:52Z,42.805,6.029,13.2938,4.59965,2471.957,2017-10-21T06:30:17Z
2017-10-21T04:30:27Z,42.805,6.029,13.2935,4.59966,2472.002,2017-10-21T06:31:52Z
2017-10-21T04:32:02Z,42.805,6.029,13.2934,4.59963,2471.979,2017-10-21T06:33:27Z
2017-10-21T04:33:36Z,42.805,6.029,13.2938,4.59965,2471.979,2017-10-21T06:35:02Z
2017-10-21T04:35:11Z,42.805,6.029,13.2937,4.59963,2471.964,2017-10-21T06:36:36Z
2017-10-21T04:36:46Z,42.805,6.029,13.2934,4.59963,2471.942,2017-10-21T06:38:11Z
2017-10-21T04:38:21Z,42.805,6.029,13.2936,4.59962,2472.002,2017-10-21T06:39:46Z
2017-10-21T04:39:56Z,42.805,6.029,13.2939,4.59962,2471.942,2017-10-21T06:41:21Z
2017-10-21T04:41:31Z,42.805,6.029,13.2936,4.59964,2471.942,2017-10-21T06:42:56Z
2017-10-21T04:43:05Z,42.805,6.029,13.2937,4.59967,2471.979,2017-10-21T06:44:31Z
2017-10-21T04:44:40Z,42.805,6.029,13.2941,4.59966,2471.957,2017-10-21T06:46:05Z
2017-10-21T04:46:15Z,42.805,6.029,13.2939,4.59968,2472.002,2017-10-21T06:47:40Z
2017-10-21T04:47:50Z,42.805,6.029,13.2940,4.59964,2471.979,2017-10-21T06:49:15Z
2017-10-21T04:49:25Z,42.805,6.029,13.2938,4.59966,2471.979,2017-10-21T06:50:50Z
2017-10-21T04:51:00Z,42.805,6.029,13.2940,4.59965,2471.964,2017-10-21T06:52:25Z
2017-10-21T04:52:34Z,42.805,6.029,13.2936,4.59967,2471.979,2017-10-21T06:54:00Z
2017-10-21T04:54:09Z,42.805,6.029,13.2939,4.59970,2471.964,2017-10-21T06:55:34Z
2017-10-21T04:55:44Z,42.805,6.029,13.2937,4.59963,2471.987,2017-10-21T06:57:09Z
2017-10-21T04:57:19Z,42.805,6.029,13.2939,4.59962,2472.002,2017-10-21T06:58:44Z
2017-10-21T04:58:54Z,42.805,6.029,13.2939,4.59964,2471.987,2017-10-21T07:00:19Z
2017-10-21T05:00:29Z,42.805,6.029,13.2939,4.59962,2471.987,2017-10-21T07:01:54Z
2017-10-21T05:02:03Z,42.805,6.029,13.2938,4.59965,2471.979,2017-10-21T07:03:29Z
2017-10-21T05:03:38Z,42.805,6.029,13.2936,4.59967,2472.002,2017-10-21T07:05:03Z
2017-10-21T05:05:13Z,42.805,6.029,13.2933,4.59961,2472.002,2017-10-21T07:06:38Z
2017-10-21T05:06:48Z,42.805,6.029,13.2935,4.59965,2472.002,2017-10-21T07:08:13Z
2017-10-21T05:08:23Z,42.805,6.029,13.2941,4.59970,2472.024,2017-10-21T07:09:48Z
2017-10-21T05:09:58Z,42.805,6.029,13.2939,4.59967,2472.002,2017-10-21T07:11:23Z
2017-10-21T05:11:32Z,42.805,6.029,13.2942,4.59966,2472.047,2017-10-21T07:12:58Z
2017-10-21T05:13:07Z,42.805,6.029,13.2942,4.59975,2472.024,2017-10-21T07:14:32Z
2017-10-21T05:14:42Z,42.805,6.029,13.2939,4.59966,2472.024,2017-10-21T07:16:07Z
2017-10-21T05:16:17Z,42.805,6.029,13.2942,4.59965,2472.024,2017-10-21T07:17:42Z
2017-10-21T05:17:52Z,42.805,6.029,13.2943,4.59962,2472.01,2017-10-21T07:19:17Z
2017-10-21T05:19:27Z,42.805,6.029,13.2941,4.59973,2472.002,2017-10-21T07:20:52Z
2017-10-21T05:21:01Z,42.805,6.029,13.2940,4.59964,2471.987,2017-10-21T07:22:27Z
2017-10-21T05:22:36Z,42.805,6.029,13.2939,4.59969,2472.047,2017-10-21T07:24:01Z
2017-10-21T05:24:11Z,42.805,6.029,13.2941,4.59963,2472.047,2017-10-21T07:25:36Z
2017-10-21T05:25:46Z,42.805,6.029,13.2935,4.59969,2472.01,2017-10-21T07:27:11Z
2017-10-21T05:27:21Z,42.805,6.029,13.2940,4.59969,2472.024,2017-10-21T07:28:46Z
2017-10-21T05:28:56Z,42.805,6.029,13.2941,4.59962,2472.024,2017-10-21T07:30:21Z
2017-10-21T05:30:30Z,42.805,6.029,13.2937,4.59962,2472.047,2017-10-21T07:31:56Z
2017-10-21T05:32:05Z,42.805,6.029,13.2934,4.59961,2472.047,2017-10-21T07:33:30Z
2017-10-21T05:33:40Z,42.805,6.029,13.2938,4.59961,2472.047,2017-10-21T07:35:05Z
2017-10-21T05:35:15Z,42.805,6.029,13.2939,4.59967,2472.024,2017-10-21T07:36:40Z
2017-10-21T05:36:50Z,42.805,6.029,13.2939,4.59962,2472.032,2017-10-21T07:38:15Z
2017-10-21T05:38:25Z,42.805,6.029,13.2943,4.59964,2472.032,2017-10-21T07:39:50Z
2017-10-21T05:39:59Z,42.805,6.029,13.2938,4.59972,2472.069,2017-10-21T07:41:25Z
2017-10-21T05:41:34Z,42.805,6.029,13.2947,4.59962,2472.055,2017-10-21T07:42:59Z
2017-10-21T05:43:09Z,42.805,6.029,13.2950,4.59971,2472.047,2017-10-21T07:44:34Z
2017-10-21T05:44:44Z,42.805,6.029,13.2940,4.59964,2472.024,2017-10-21T07:46:09Z
2017-10-21T05:46:19Z,42.805,6.029,13.2941,4.59975,2472.024,2017-10-21T07:47:44Z
2017-10-21T05:47:54Z,42.805,6.029,13.2940,4.59965,2472.032,2017-10-21T07:49:19Z
2017-10-21T05:49:28Z,42.805,6.029,13.2940,4.59963,2472.047,2017-10-21T07:50:54Z
2017-10-21T05:51:03Z,42.805,6.029,13.2938,4.59966,2472.047,2017-10-21T07:52:28Z
2017-10-21T05:52:38Z,42.805,6.029,13.2939,4.59973,2472.032,2017-10-21T07:54:03Z
2017-10-21T05:54:13Z,42.805,6.029,13.2944,4.59962,2472.069,2017-10-21T07:55:38Z
2017-10-21T05:55:48Z,42.805,6.029,13.2940,4.59967,2472.069,2017-10-21T07:57:13Z
2017-10-21T05:57:23Z,42.805,6.029,13.2936,4.59961,2472.047,2017-10-21T07:58:48Z
2017-10-21T05:58:57Z,42.805,6.029,13.2939,4.59961,2472.047,2017-10-21T08:00:23Z
2017-10-21T06:00:32Z,42.805,6.029,13.2938,4.59961,2472.055,2017-10-21T08:01:57Z
2017-10-21T06:02:07Z,42.805,6.029,13.2941,4.59963,2472.047,2017-10-21T08:03:32Z
2017-10-21T06:03:42Z,42.805,6.029,13.2936,4.59970,2472.032,2017-10-21T08:05:07Z
2017-10-21T06:05:17Z,42.805,6.029,13.2943,4.59963,2472.069,2017-10-21T08:06:42Z
2017-10-21T06:06:52Z,42.805,6.029,13.2941,4.59964,2472.069,2017-10-21T08:08:17Z
2017-10-21T06:08:26Z,42.805,6.029,13.2939,4.59964,2472.069,2017-10-21T08:09:52Z
2017-10-21T06:10:01Z,42.805,6.029,13.2946,4.59964,2472.092,2017-10-21T08:11:26Z
2017-10-21T06:11:36Z,42.805,6.029,13.2945,4.59963,2472.092,2017-10-21T08:13:01Z
2017-10-21T06:13:11Z,42.805,6.029,13.2943,4.59975,2472.077,2017-10-21T08:14:36Z
2017-10-21T06:14:46Z,42.805,6.029,13.2945,4.59967,2472.069,2017-10-21T08:16:11Z
2017-10-21T06:16:21Z,42.805,6.029,13.2941,4.59964,2472.069,2017-10-21T08:17:46Z
2017-10-21T06:17:55Z,42.805,6.029,13.2939,4.59964,2472.055,2017-10-21T08:19:21Z
2017-10-21T06:19:30Z,42.805,6.029,13.2936,4.59962,2472.069,2017-10-21T08:20:55Z
2017-10-21T06:21:05Z,42.805,6.029,13.2939,4.59961,2472.069,2017-10-21T08:22:30Z
2017-10-21T06:22:40Z,42.805,6.029,13.2936,4.59964,2472.069,2017-10-21T08:24:05Z
2017-10-21T06:24:15Z,42.805,6.029,13.2935,4.59962,2472.092,2017-10-21T08:25:40Z
2017-10-21T06:25:50Z,42.805,6.029,13.2938,4.59961,2472.092,2017-10-21T08:27:15Z
2017-10-21T06:27:25Z,42.805,6.029,13.2935,4.59964,2472.092,2017-10-21T08:28:50Z
2017-10-21T06:28:59Z,42.805,6.029,13.2932,4.59963,2472.092,2017-10-21T08:30:24Z
2017-10-21T06:30:34Z,42.805,6.029,13.2935,4.59964,2472.115,2017-10-21T08:31:59Z
2017-10-21T06:32:09Z,42.805,6.029,13.2944,4.59961,2472.077,2017-10-21T08:33:34Z
2017-10-21T06:33:44Z,42.805,6.029,13.2940,4.59960,2472.077,2017-10-21T08:35:09Z
2017-10-21T06:35:19Z,42.805,6.029,13.2939,4.59961,2472.069,2017-10-21T08:36:44Z
2017-10-21T06:36:54Z,42.805,6.029,13.2936,4.59961,2472.1,2017-10-21T08:38:19Z
2017-10-21T06:38:28Z,42.805,6.029,13.2943,4.59961,2472.055,2017-10-21T08:39:54Z
2017-10-21T06:40:03Z,42.805,6.029,13.2932,4.59962,2472.092,2017-10-21T08:41:28Z
2017-10-21T06:41:38Z,42.805,6.029,13.2937,4.59961,2472.092,2017-10-21T08:43:03Z
2017-10-21T06:43:13Z,42.805,6.029,13.2940,4.59960,2472.092,2017-10-21T08:44:38Z
2017-10-21T06:44:48Z,42.805,6.029,13.2935,4.59961,2472.1,2017-10-21T08:46:13Z
2017-10-21T06:46:23Z,42.805,6.029,13.2938,4.59961,2472.115,2017-10-21T08:47:48Z
2017-10-21T06:47:57Z,42.805,6.029,13.2936,4.59961,2472.1,2017-10-21T08:49:23Z
2017-10-21T06:49:32Z,42.805,6.029,13.2939,4.59962,2472.115,2017-10-21T08:50:57Z
2017-10-21T06:51:07Z,42.805,6.029,13.2940,4.59963,2472.092,2017-10-21T08:52:32Z
2017-10-21T06:52:42Z,42.805,6.029,13.2939,4.59964,2472.115,2017-10-21T08:54:07Z
2017-10-21T06:54:17Z,42.805,6.029,13.2937,4.59964,2472.115,2017-10-21T08:55:42Z
2017-10-21T06:55:52Z,42.805,6.029,13.2939,4.59964,2472.115,2017-10-21T08:57:17Z
2017-10-21T06:57:26Z,42.805,6.029,13.2935,4.59969,2472.092,2017-10-21T08:58:52Z
2017-10-21T06:59:01Z,42.805,6.029,13.2939,4.59968,2472.115,2017-10-21T09:00:26Z
2017-10-21T07:00:36Z,42.805,6.029,13.2939,4.59970,2472.1,2017-10-21T09:02:01Z
2017-10-21T07:02:11Z,42.805,6.029,13.2940,4.59962,2472.115,2017-10-21T09:03:36Z
2017-10-21T07:03:46Z,42.805,6.029,13.2940,4.59962,2472.115,2017-10-21T09:05:11Z
2017-10-21T07:05:21Z,42.805,6.029,13.2936,4.59962,2472.1,2017-10-21T09:06:46Z
2017-10-21T07:06:55Z,42.805,6.029,13.2937,4.59961,2472.115,2017-10-21T09:08:21Z
2017-10-21T07:08:30Z,42.805,6.029,13.2938,4.59960,2472.1,2017-10-21T09:09:55Z
2017-10-21T07:10:05Z,42.805,6.029,13.2933,4.59961,2472.115,2017-10-21T09:11:30Z
2017-10-21T07:11:40Z,42.805,6.029,13.2932,4.59960,2472.115,2017-10-21T09:13:05Z
2017-10-21T07:13:15Z,42.805,6.029,13.2939,4.59961,2472.115,2017-10-21T09:14:40Z
2017-10-21T07:14:50Z,42.805,6.029,13.2939,4.59961,2472.123,2017-10-21T09:16:15Z
2017-10-21T07:16:24Z,42.805,6.029,13.2940,4.59961,2472.123,2017-10-21T09:17:50Z
2017-10-21T07:17:59Z,42.805,6.029,13.2938,4.59960,2472.092,2017-10-21T09:19:24Z
2017-10-21T07:19:34Z,42.805,6.029,13.2936,4.59961,2472.1,2017-10-21T09:20:59Z
2017-10-21T07:21:09Z,42.805,6.029,13.2934,4.59961,2472.145,2017-10-21T09:22:34Z
2017-10-21T07:22:44Z,42.805,6.029,13.2937,4.59964,2472.123,2017-10-21T09:24:09Z
2017-10-21T07:24:19Z,42.805,6.029,13.2938,4.59961,2472.115,2017-10-21T09:25:44Z
2017-10-21T07:25:53Z,42.805,6.029,13.2937,4.59961,2472.115,2017-10-21T09:27:19Z
2017-10-21T07:27:28Z,42.805,6.029,13.2935,4.59960,2472.137,2017-10-21T09:28:53Z
2017-10-21T07:29:03Z,42.805,6.029,13.2937,4.59961,2472.1,2017-10-21T09:30:28Z
2017-10-21T07:30:38Z,42.805,6.029,13.2935,4.59963,2472.1,2017-10-21T09:32:03Z
2017-10-21T07:32:13Z,42.805,6.029,13.2941,4.59962,2472.145,2017-10-21T09:33:38Z
2017-10-21T07:33:48Z,42.805,6.029,13.2939,4.59961,2472.137,2017-10-21T09:35:13Z
2017-10-21T07:35:22Z,42.805,6.029,13.2937,4.59961,2472.16,2017-10-21T09:36:48Z
2017-10-21T07:36:57Z,42.805,6.029,13.2938,4.59963,2472.115,2017-10-21T09:38:22Z
2017-10-21T07:38:32Z,42.805,6.029,13.2934,4.59962,2472.115,2017-10-21T09:39:57Z
2017-10-21T07:40:07Z,42.805,6.029,13.2942,4.59967,2472.1,2017-10-21T09:41:32Z
2017-10-21T07:41:42Z,42.805,6.029,13.2935,4.59962,2472.123,2017-10-21T09:43:07Z
2017-10-21T07:43:17Z,42.805,6.029,13.2939,4.59961,2472.115,2017-10-21T09:44:42Z
2017-10-21T07:44:51Z,42.805,6.029,13.2939,4.59963,2472.145,2017-10-21T09:46:17Z